Regional Weather Roundup
Issued by NWS

Home | Current Version | Previous Version | Graphics & Text | Print | Product List | Glossary On
Versions: 1 2 3 4 5 6 7 8 9 10 11 12 13 14 15 16 17 18 19 20 21 22 23 24 25 26 27 28 29 30 31 32 33 34 35 36 37 38 39 40 41 42 43 44 45 46 47 48 49 50
000
ASUS43 KDMX 272306
RWRIA

WEATHER ROUNDUP FOR IOWA
NATIONAL WEATHER SERVICE DES MOINES IA
600 PM CDT SAT MAY 27 2017

NOTE: "FAIR" INDICATES FEW OR NO CLOUDS BELOW 12,000 FEET WITH NO
SIGNIFICANT WEATHER AND/OR OBSTRUCTIONS TO VISIBILITY.

* - THESE STATIONS ARE NOT NWS STATIONS...THUS NOT UNDER NWS
QUALITY CONTROL.  THEY ALSO DO NOT REPORT WEATHER SUCH
AS PRECIPITATION OR FOG.

IAZ001>003-012>014-020>022-031>034-043>046-280000-
   NORTHWEST IOWA

CITY           SKY/WX    TMP DP  RH WIND       PRES   REMARKS
CARROLL *      SUNNY     70  54  56 VRB7      29.89R
DENISON *      MOSUNNY   68  50  52 E7G13     29.91R
LE MARS *      PTSUNNY   68  52  56 NW7G14    29.93R
ORANGE CITY *  MOSUNNY   66  54  63 NW9       29.92S
SHELDON *      PTSUNNY   70  50  49 NW9G15    29.90S
SIOUX CITY     PTSUNNY   71  53  52 N6        29.91R
SPENCER        PTSUNNY   71  50  47 N7        29.90R
$$

IAZ055>058-069>071-079>083-090>094-280000-
   SOUTHWEST IOWA

CITY           SKY/WX    TMP DP  RH WIND       PRES   REMARKS
ATLANTIC *     SUNNY     68  57  68 NE8       29.89R
AUDUBON *      SUNNY     68  57  68 NE7       29.91R
CLARINDA *     MOSUNNY   72  61  68 NE10      29.88S
COUNCIL BLFS * SUNNY     68  57  68 NE6G13    29.90R
CRESTON *      CLOUDY    70  61  73 NE7       29.89R
HARLAN  *      SUNNY     68  55  64 NE8       29.93S
LAMONI         CLOUDY    74  60  61 N6        29.85R
RED OAK *      SUNNY     72  59  64 NE8       29.88R
SHENANDOAH *   PTSUNNY   72  59  64 MISG      29.88R
$$

IAZ047>049-059>061-072>074-084-280000-
   CENTRAL IOWA

CITY           SKY/WX    TMP DP  RH WIND       PRES   REMARKS
AMES           MOSUNNY   66  56  70 E13       29.88R
ANKENY *       CLOUDY    66  57  72 NE9       29.89R
BOONE *        SUNNY     66  57  72 E14G20    29.87R
CHARITON *     CLOUDY    68  61  77 N14       29.85S
DES MOINES     PTSUNNY   68  58  70 NE13      29.87R
GRINNELL*      CLOUDY    62  58  88 N7        29.90R
KNOXVILLE *    CLOUDY    66  59  77 NE14      29.86R
MARSHALLTOWN   LGT RAIN  59  56  89 NE13      29.88R
NEWTON *       CLOUDY    63  57  82 NE15G22   29.87R
PELLA *        CLOUDY    65  58  78 NE7G16    29.88R
PERRY *          N/A     68  58  72 E9        29.88R
$$

IAZ004>006-015-016-023>025-035-036-280000-
   NORTH CENTRAL IOWA

CITY           SKY/WX    TMP DP  RH WIND       PRES   REMARKS
ALGONA *       SUNNY     70  48  46 N6        29.88F
CLARION *      CLOUDY    68  50  52 E10       29.89R
ESTHERVILLE    MOSUNNY   68  46  45 NW5       29.89S
FORT DODGE *   SUNNY     70  48  46 E8        29.90R
MASON CITY     LGT RAIN  67  48  50 E8        29.90S
FOREST CITY *    N/A     70  41  35 NE3       29.88F
WEBSTER CITY * MOSUNNY   68  52  56 E14       29.87R
$$

IAZ007>011-017>019-026>030-037>042-050>054-066-280000-
   NORTHEAST IOWA

CITY           SKY/WX    TMP DP  RH WIND       PRES   REMARKS
CEDAR RAPIDS   RAIN      62  62 100 N16       29.87R FOG
CHARLES CITY * DRIZZLE   63  54  72 N6        29.90R
CLINTON *      LGT RAIN  72  61  68 CALM      29.85S
DECORAH *      CLOUDY    66  54  63 NW6       29.89R
DUBUQUE        CLOUDY    71  62  73 E5        29.87R
MONTICELLO *   CLOUDY    70  64  83 S3        29.87R
OELWEIN *      CLOUDY    64  61  88 NW7       29.89R
WATERLOO       LGT RAIN  62  59  90 NW8       29.87F
$$

IAZ064-065-067-068-078-280000-
   EAST CENTRAL IOWA

CITY           SKY/WX    TMP DP  RH WIND       PRES   REMARKS
DAVENPORT      CLOUDY    72  61  68 E6        29.84S
IOWA CITY      CLOUDY    70  65  84 NW3       29.87R
MT. PLEASANT * CLOUDY    73  62  68 E5        29.83R
MUSCATINE *    CLOUDY    73  63  68 CALM      29.83S
QUAD CITIES    CLOUDY    75  62  64 E6        29.82F
$$

IAZ062-063-075>077-085>089-095>099-280000-
   SOUTHEAST IOWA

CITY           SKY/WX    TMP DP  RH WIND       PRES   REMARKS
BURLINGTON     CLOUDY    73  65  75 E5        29.81R
FAIRFIELD *    CLOUDY    73  63  68 E5        29.83R
FORT MADISON * CLOUDY    72  64  78 CALM      29.82R
KEOKUK *       CLOUDY    73  63  68 SE7       29.80R
OSKALOOSA *    PTSUNNY   66  60  80 N14       29.85R
CENTERVILLE *    N/A     73  63  68 NW12      29.84S
OTTUMWA        CLOUDY    71  63  75 N10       29.83R
WASHINGTON *   CLOUDY    72  63  73 CALM      29.84S
$$

ABBREVIATIONS USED IN REMARKS
   TC - TEMPERATURES IN CELSIUS
  WCI - WIND CHILL INDEX
   HX - HEAT INDEX
  VSB - VISIBILITY
$$





USA.gov is the U.S. government's official web portal to all federal, state and local government web resources and services.